Location: Unspecified
(55.8762°N, 37.5216°E)
Time: 21:02:03
(UTC+03:00)

ARIANE 6 FM1 Upper Stage - Visible Passes

Search period start: 13 March 2026 00:00
Search period end: 23 March 2026 00:00
Orbit: 523 x 607 km, 62.0° (Epoch: 12 March)

Date Brightness Start Highest point End Pass type
(mag) Time Alt. Az. Time Alt. Az. Time Alt. Az.
13 Mar 5.1 04:10:07 11° SSE 04:12:13 15° ESE 04:14:33 10° E visible
13 Mar 2.9 05:46:32 10° SW 05:50:36 67° SE 05:54:34 10° ENE visible
14 Mar 4.7 04:10:13 16° SSE 04:11:50 20° SE 04:14:47 10° ENE visible
14 Mar 2.6 05:46:17 10° SW 05:50:21 85° SE 05:54:23 10° ENE visible
15 Mar 4.3 04:10:13 22° SSE 04:11:28 26° SE 04:14:49 10° ENE visible
15 Mar 2.6 05:46:13 11° WSW 05:50:09 78° NNW 05:54:10 10° NE visible
16 Mar 3.8 04:10:09 29° SSE 04:11:07 33° SE 04:14:45 10° ENE visible
16 Mar 2.7 05:46:08 11° WSW 05:49:57 64° NNW 05:53:56 10° NE visible
17 Mar 3.3 04:10:00 38° SSE 04:10:47 43° SE 04:14:37 10° ENE visible
17 Mar 2.9 05:45:59 11° WSW 05:49:46 54° NNW 05:53:42 10° NE visible
18 Mar 5.5 02:33:48 10° E 02:33:48 10° E 02:33:52 10° E visible
18 Mar 2.9 04:09:47 48° S 04:10:29 56° SE 04:14:26 10° ENE visible
18 Mar 3.1 05:45:46 11° W 05:49:36 46° NNW 05:53:28 10° NE visible
19 Mar 5.3 02:33:33 13° E 02:33:33 13° E 02:34:20 10° E visible
19 Mar 2.6 04:09:32 58° SSW 04:10:11 73° SE 04:14:12 10° ENE visible
19 Mar 3.3 05:45:35 10° W 05:49:26 41° NNW 05:53:14 10° NE visible
20 Mar 5.1 02:33:15 16° E 02:33:15 16° E 02:34:27 10° ENE visible
20 Mar 2.5 04:09:13 60° SW 04:09:55 90° NNW 04:13:57 10° NE visible
20 Mar 3.5 05:45:29 10° W 05:49:17 38° NNW 05:53:02 10° ENE visible
21 Mar 4.9 02:32:54 19° E 02:32:54 19° E 02:34:24 10° ENE visible
21 Mar 2.6 04:08:52 54° W 04:09:40 74° NNW 04:13:41 10° NE visible
21 Mar 3.7 05:45:23 10° WNW 05:49:08 35° N 05:52:49 10° ENE visible
22 Mar 4.7 02:32:31 22° E 02:32:31 22° E 02:34:16 10° ENE visible
22 Mar 2.8 04:08:29 46° W 04:09:26 61° NNW 04:13:24 10° NE visible
22 Mar 3.8 05:45:17 10° WNW 05:48:59 34° N 05:52:39 10° ENE visible
